Regional Weather Roundup
Issued by NWS Little Rock, AR

Home | Current Version | Previous Version | Text Only | Print | Product List | Glossary Off
Versions: 1 2 3 4 5 6 7 8 9 10 11 12 13 14 15 16 17 18 19 20 21 22 23 24 25 26 27 28 29 30 31 32 33 34 35 36 37 38 39 40 41 42 43 44 45 46 47 48 49 50

000
ASUS44 KLZK 250805
RWRLZK

WEATHER ROUNDUP FOR ARKANSAS
NATIONAL WEATHER SERVICE LITTLE ROCK AR
200 AM CST SUN FEB 25 2018

NOTE: "FAIR" INDICATES FEW OR NO CLOUDS BELOW 12,000 FEET WITH NO
SIGNIFICANT WEATHER AND/OR OBSTRUCTIONS TO VISIBILITY.

ARZ001-003-010-029-250900-
NORTHWEST ARKANSAS

CITY           SKY/WX    TMP DP  RH WIND       PRES   REMARKS
FAYETTEVILLE   FOG       32  32 100 CALM      30.03F VSB 1/4
FORT SMITH     CLEAR     38  37  97 CALM      30.05R
HARRISON       CLEAR     35  32  88 CALM      30.02S
BENTONVILLE    CLEAR     32  31  96 S3        30.04S
ROGERS         CLEAR     31  31 100 S6        30.03S WCI  25
SILOAM SPGS    CLEAR     32  32 100 SE3       30.03S FOG
$$

ARZ004-005-016-250900-
NORTH CENTRAL ARKANSAS

CITY           SKY/WX    TMP DP  RH WIND       PRES   REMARKS
BATESVILLE     CLOUDY    43  36  76 NW6       30.05R
FLIPPIN        PTCLDY    37  33  85 W5        30.04S
MTN HOME       CLEAR     36  34  92 CALM      30.02R
$$

ARZ040-041-250900-
WEST CENTRAL ARKANSAS

CITY           SKY/WX    TMP DP  RH WIND       PRES   REMARKS
MENA           CLOUDY    45  45 100 NE5       30.04S
MOUNT IDA      PTCLDY    44  41  89 CALM      30.02
$$

ARZ009-017-025-026-028-250900-
NORTHEAST ARKANSAS

CITY           SKY/WX    TMP DP  RH WIND       PRES   REMARKS
JONESBORO      FAIR      48  38  68 NW16G25   30.02R
NEWPORT          N/A     46  37  71 NW16      30.04R
WALNUT RIDGE   FAIR      45  38  76 W12       30.02R
BLYTHEVILLE    FAIR      52  44  74 NW14      29.98R
$$

ARZ022-023-033-042-044-250900-
CENTRAL ARKANSAS

CITY           SKY/WX    TMP DP  RH WIND       PRES   REMARKS
LITTLE ROCK    CLOUDY    49  43  80 NW12      30.04R
N LITTLE ROCK    N/A     47  43  86 NW5       30.01R
JACKSONVILLE   MOCLDY    49  45  85 W7        30.03R
SEARCY         FAIR      49  42  77 NW8       30.05R
HOT SPRINGS    PTCLDY    48  45  89 CALM      30.04R
RUSSELLVILLE   MOCLDY    43  39  86 NW3       30.04R
CLINTON        FAIR      43  36  75 VRB3      30.05R
$$

ARZ036-250900-
EAST ARKANSAS

CITY           SKY/WX    TMP DP  RH WIND       PRES   REMARKS
WEST MEMPHIS   MOCLDY    56  53  90 NW6       29.98R
$$

ARZ050-053-066-070-073-250900-
SOUTHWEST ARKANSAS

CITY           SKY/WX    TMP DP  RH WIND       PRES   REMARKS
ARKADELPHIA    FAIR      51  46  83 NW3       30.05R
CAMDEN         CLOUDY    54  52  94 CALM      30.02S FOG
TEXARKANA      MOCLDY    51  45  79 N7        30.01F
EL DORADO      MOCLDY    54  54 100 CALM      30.02S
DE QUEEN       MOCLDY    43  43 100 CALM      30.02R
$$

ARZ056-057-069-250900-
SOUTHEAST ARKANSAS

CITY           SKY/WX    TMP DP  RH WIND       PRES   REMARKS
PINE BLUFF     MOCLDY    53  47  79 NW7       30.04R
STUTTGART      FAIR      52  45  77 NW13      30.03R
MONTICELLO     MOCLDY    55  54  96 CALM      30.01S

$$





USA.gov is the U.S. government's official web portal to all federal, state and local government web resources and services.